Location: Piotrkow Trybunalski
(51.4000°N, 19.6830°E)
Time: 09:06:57
(UTC+01:00)

BlueWalker 3 - Pass Details

Date: 07 December 2022
Orbit: 499 x 517 km, 53.2° (Epoch: 29 January)

Event Time Altitude Azimuth Distance (km) Brightness Sun altitude
Rises 17:03:40 0° 286° (WNW) 2,634 6.5 -13.2°
Reaches altitude 10° 17:05:53 10° 287° (WNW) 1,742 5.5 -13.5°
Maximum altitude 17:09:50 88° 11° (N) 517 1.9 -14.1°
Enters shadow 17:12:25 21° 107° (ESE) 1,203 3.4 -14.5°
